Regional Weather Roundup
Issued by NWS

Home | Current Version | Previous Version | Graphics & Text | Print | Product List | Glossary On
Versions: 1 2 3 4 5 6 7 8 9 10 11 12 13 14 15 16 17 18 19 20 21 22 23 24 25 26 27 28 29
000
ASUS45 KGTF 031110
RWRMT
MONTANA HOURLY WEATHER ROUNDUP
NATIONAL WEATHER SERVICE GREAT FALLS MT
500 AM MDT SUN MAY 03 2015

NOTE: "FAIR" INDICATES FEW OR NO CLOUDS BELOW 12000 FEET WITH NO
SIGNIFICANT WEATHER AND/OR OBSTRUCTIONS TO VISIBILITY.

MTZ001>007-043-031200-
WEST OF THE DIVIDE

CITY           SKY/WX    TMP DP  RH WIND       PRES   REMARKS
KALISPELL      SUNNY     27  21  78 W3        29.97R
MISSOULA       CLEAR     34  22  61 CALM      29.98R
BUTTE          CLEAR     29  18  63 S6        29.98R WCI  23
DEER LODGE       N/A     36  27  69 CALM      30.03R
EUREKA           N/A     28  19  69 CALM      30.03R
LIBBY            N/A     28  25  86 CALM      30.02R
$$

MTZ008-052>055-031200-
SOUTHWEST MONTANA

CITY           SKY/WX    TMP DP  RH WIND       PRES   REMARKS
BOZEMAN        CLOUDY    39  32  76 E3        29.97R
DILLON         CLEAR     41  25  53 E7        29.95R
$$

MTZ009-010-012-014-046-048-049-054-031200-
EAST SLOPES AND CENTRAL MONTANA

CITY           SKY/WX    TMP DP  RH WIND       PRES   REMARKS
CUT BANK       PTCLDY    37  30  75 NE3       30.00S
GREAT FALLS    CLEAR     34  25  69 CALM      30.00F
MALMSTROM AFB  MOCLDY    40  28  61 NW5       30.01S
HELENA         CLEAR     41  28  60 SW8       30.00R
$$

MTZ011-013-016-021-045-047-050-051-031200-
NORTH CENTRAL MONTANA

CITY           SKY/WX    TMP DP  RH WIND       PRES   REMARKS
HAVRE          CLOUDY    36  26  67 S6        30.02R WCI  31
LEWISTOWN      MOCLDY    41  33  73 SW3       30.01R
CHINOOK          N/A     39  25  56 SW3       30.03R
FORT BENTON      N/A     39  27  60 CALM      30.03S
$$

MTZ017>020-022>042-056>058-061-062-031200-
EASTERN PLAINS

CITY           SKY/WX    TMP DP  RH WIND       PRES   REMARKS
BAKER          CLOUDY    49  34  56 N8        29.95R
BILLINGS       MOCLDY    45  32  60 N7        30.00R
GLASGOW        MOCLDY    38  30  73 NW7       29.98R
JORDAN           N/A     45  34  65 NW5       29.98R
LIVINGSTON     PTCLDY    45  33  63 E14       29.99R
MILES CITY     CLOUDY    48  33  56 N9        29.97R
SIDNEY         MOCLDY    46  36  66 W8        29.96R
WOLF POINT     PTCLDY    38  30  73 W7        29.98R
BIG TIMBER       N/A     45  34  65 NE7       30.02S
FORSYTH          N/A     46  34  61 N3        29.99R
PLENTYWOOD       N/A     36  32  87 NW8       29.94R WCI  29
POPLAR           N/A     37  34  87 SW6       29.97S
$$

REGIONAL REPORTS...DAKOTAS

CITY           SKY/WX    TMP DP  RH WIND       PRES   REMARKS
WILLISTON      PTCLDY    40  32  73 CALM      29.94R
MINOT          LGT RAIN  48  36  63 W13       29.88R
DICKINSON      CLOUDY    49  36  61 NW5       29.93R
BEACH          CLOUDY    41  37  87 NW7       29.96R
CROSBY         FAIR      39  37  93 NW12      29.93R WCI  32
WATFORD CITY   PTSUNNY   46  36  66 NW6       29.93R
BISMARCK       LGT RAIN  53  40  61 NW14      29.88R
GRAND FORKS    PTCLDY    46  40  79 NW8       29.75R
FARGO          CLEAR     50  41  71 N13       29.73R
BUFFALO SD       N/A     51  37  58 NE17      29.86R
RAPID CITY     PTCLDY    51  31  46 N23G31    29.83R
$$

REGIONAL REPORTS...WYOMING/IDAHO/WASHINGTON

CITY           SKY/WX    TMP DP  RH WIND       PRES   REMARKS
GILLETTE       PTCLDY    50  33  52 N9        29.92R
SHERIDAN       CLOUDY    48  37  65 NW12      29.96R
BUFFALO WY     CLOUDY    50  33  52 N14G28    29.97R
CODY           PTCLDY    45  36  70 N7        29.96R
YELLOWSTONE LA   N/A     28  22  78 CALM      30.02S
IDAHO FALLS    CLOUDY    54  31  41 CALM      29.91R
SALMON         PTCLDY    37  27  65 CALM      29.94R
BOISE          PTCLDY    52  34  50 CALM      29.84F
SPOKANE        CLOUDY    45  26  47 NE5       29.96S
$$

REGIONAL REPORTS...ALBERTA

CITY           SKY/WX    TMP DP  RH WIND       PRES   REMARKS
EDMONTON       CLEAR     32  28  86 W8        29.99S WCI  25
CALGARY        MOCLDY    32  27  80 W5        30.03R
LETHBRIDGE     CLOUDY    34  30  86 SW3       30.01S
MEDICINE HAT   PTCLDY    30  27  86 W2        30.03S
$$

REGIONAL REPORTS...SASKATCHEWAN

CITY           SKY/WX    TMP DP  RH WIND       PRES   REMARKS
SWIFT CURRENT  CLEAR     28  25  86 W13       29.97R WCI  18
REGINA         CLEAR     32  30  93 W13       29.92R WCI  22
SASKATOON      CLEAR     34  32  93 NW10      29.93R WCI  26
$$



USA.gov is the U.S. government's official web portal to all federal, state and local government web resources and services.